Location: Chanteloup
(48.8560°N, 2.7390°E)
Time: 19:31:02
(UTC+00:00)

ATLAS 5 CENTAUR R/B - Pass Details

Date: 24 October 2021
Orbit: 497 x 1159 km, 63.4° (Epoch: 25 November)

Event Time Altitude Azimuth Distance (km) Brightness Sun altitude
Rises 19:34:35 0° 284° (WNW) 2,745 6.1 -28.8°
Reaches altitude 10° 19:37:24 10° 306° (NW) 1,941 4.9 -29.3°
Maximum altitude 19:40:15 17° 347° (NNW) 1,644 4.0 -29.7°
Enters shadow 19:40:57 16° 358° (N) 1,693 3.9 -29.8°
